TimeMST,TemperatureF,Dew PointF,Humidity,Sea Level PressureIn,VisibilityMPH,Wind Direction,Wind SpeedMPH,Gust SpeedMPH,PrecipitationIn,Events,Conditions,WindDirDegrees,DateUTC
12:15 AM,23.0,19.4,86,30.24,10.0,North,4.6,-,N/A,,Clear,360,2013-02-13 07:15:00
12:35 AM,23.0,19.4,86,30.24,10.0,Calm,Calm,-,N/A,,Clear,0,2013-02-13 07:35:00
12:55 AM,23.0,19.4,86,30.25,10.0,NNW,3.5,-,N/A,,Clear,340,2013-02-13 07:55:00
1:15 AM,23.0,19.4,86,30.24,10.0,WNW,3.5,-,N/A,,Clear,300,2013-02-13 08:15:00
1:35 AM,23.0,19.4,86,30.24,10.0,NNW,5.8,-,N/A,,Clear,330,2013-02-13 08:35:00
1:55 AM,23.0,19.4,86,30.24,10.0,NW,8.1,-,N/A,,Scattered Clouds,320,2013-02-13 08:55:00
2:15 AM,23.0,19.4,86,30.23,10.0,WNW,8.1,-,N/A,,Scattered Clouds,300,2013-02-13 09:15:00
2:35 AM,23.0,19.4,86,30.23,10.0,NW,5.8,-,N/A,,Scattered Clouds,320,2013-02-13 09:35:00
2:55 AM,23.0,19.4,86,30.22,10.0,NW,9.2,-,N/A,,Scattered Clouds,320,2013-02-13 09:55:00
3:15 AM,23.0,19.4,86,30.21,10.0,NW,10.4,-,N/A,,Clear,320,2013-02-13 10:15:00
3:35 AM,23.0,19.4,86,30.20,10.0,NW,10.4,-,N/A,,Scattered Clouds,310,2013-02-13 10:35:00
3:55 AM,23.0,19.4,86,30.21,10.0,WNW,5.8,-,N/A,,Scattered Clouds,290,2013-02-13 10:55:00
4:15 AM,23.0,19.4,86,30.21,10.0,Calm,Calm,-,N/A,,Scattered Clouds,0,2013-02-13 11:15:00
4:35 AM,23.0,19.4,86,30.21,10.0,NNW,5.8,-,N/A,,Mostly Cloudy,330,2013-02-13 11:35:00
4:55 AM,23.0,19.4,86,30.21,10.0,NNW,6.9,-,N/A,,Overcast,330,2013-02-13 11:55:00
5:15 AM,23.0,19.4,86,30.21,10.0,Calm,Calm,-,N/A,,Overcast,0,2013-02-13 12:15:00
5:35 AM,23.0,19.4,86,30.20,10.0,NW,4.6,-,N/A,,Overcast,310,2013-02-13 12:35:00
5:55 AM,23.0,19.4,86,30.20,10.0,Calm,Calm,-,N/A,,Overcast,0,2013-02-13 12:55:00
6:47 AM,21.2,19.4,93,30.19,10.0,WNW,3.5,-,N/A,,Mostly Cloudy,290,2013-02-13 13:47:00
7:47 AM,19.4,17.6,93,30.20,10.0,Calm,Calm,-,N/A,,Scattered Clouds,0,2013-02-13 14:47:00
8:47 AM,21.2,19.4,93,30.20,10.0,WNW,3.5,-,N/A,,Scattered Clouds,290,2013-02-13 15:47:00
9:47 AM,26.6,21.2,80,30.19,10.0,NW,5.8,-,N/A,,Scattered Clouds,310,2013-02-13 16:47:00
10:47 AM,30.2,23.0,75,30.19,10.0,East,5.8,-,N/A,,Partly Cloudy,100,2013-02-13 17:47:00
11:47 AM,35.6,28.4,75,30.17,10.0,SE,13.8,-,N/A,,Scattered Clouds,130,2013-02-13 18:47:00
2:47 PM,42.8,26.6,53,30.11,10.0,SSW,11.5,-,N/A,,Scattered Clouds,210,2013-02-13 21:47:00
3:50 PM,42.8,26.6,53,30.11,10.0,SSW,10.4,-,N/A,,Scattered Clouds,200,2013-02-13 22:50:00
5:47 PM,39.2,26.6,61,30.11,10.0,SSW,11.5,-,N/A,,Scattered Clouds,210,2013-02-14 00:47:00
6:47 PM,35.6,26.6,70,30.11,10.0,Calm,Calm,-,N/A,,Scattered Clouds,0,2013-02-14 01:47:00
7:47 PM,35.6,23.0,60,30.11,10.0,ENE,4.6,-,N/A,,Scattered Clouds,60,2013-02-14 02:47:00
8:47 PM,30.2,24.8,80,30.12,10.0,Calm,Calm,-,N/A,,Clear,0,2013-02-14 03:47:00
9:47 PM,30.2,21.2,69,30.13,10.0,SSE,6.9,-,N/A,,Clear,150,2013-02-14 04:47:00
10:15 PM,30.2,23.0,75,30.13,10.0,Calm,Calm,-,N/A,,Clear,0,2013-02-14 05:15:00
10:35 PM,32.0,21.2,64,30.14,10.0,Calm,Calm,-,N/A,,Clear,0,2013-02-14 05:35:00
10:47 PM,30.2,21.2,69,30.15,10.0,Calm,Calm,-,N/A,,Clear,0,2013-02-14 05:47:00
10:55 PM,30.2,23.0,75,30.15,10.0,Calm,Calm,-,N/A,,Clear,0,2013-02-14 05:55:00
11:15 PM,30.2,21.2,69,30.16,10.0,Calm,Calm,-,N/A,,Clear,0,2013-02-14 06:15:00
11:35 PM,30.2,21.2,69,30.16,10.0,Calm,Calm,-,N/A,,Clear,0,2013-02-14 06:35:00
11:55 PM,28.4,21.2,74,30.17,10.0,Calm,Calm,-,N/A,,Clear,0,2013-02-14 06:55:00